Shannon, GA

5:05 AM EST on February 06, 2016 (GMT -0500)
Russell

Weather History for KRMG - January, 2014

Change the Weather History Date:

Friday, January 17, 2014

  Actual Average Record
Temperature  
Mean Temperature 36 °F 41 °F  
Max Temperature 49 °F 52 °F 61 °F (2002)
Min Temperature 22 °F 30 °F 12 °F (2009)
Degree Days  
Heating Degree Days 29 24  
Month to date heating degree days 485 408  
Since 1 July heating degree days 1750 1708  
Moisture  
Dew Point 21 °F    
Average Humidity 61    
Maximum Humidity 88    
Minimum Humidity 33    
Precipitation  
Precipitation 0.00 in 0.17 in 1.40 in (2012)
Month to date precipitation 3.08 2.25  
Year to date precipitation 3.08 2.25  
Snow  
Snow 0.00 in - - ()
Month to date snowfall T  
Since 1 July snowfall T  
Snow Depth 0.00 in    
Sea Level Pressure  
Sea Level Pressure 30.00 in    
Wind  
Wind Speed 6 mph (West)    
Max Wind Speed 21 mph    
Max Gust Speed 28 mph    
Visibility 10 miles    
Events      
T = Trace of Precipitation, MM = Missing Value Source: NWS Daily Summary

Daily Weather History Graph

Daily Weather History Graph

Search for Another Location

Airport or City:

Trip Planner

Search our weather history database for the weather conditions in past years. The results will help you decide how hot, cold, wet, or windy it might be!

Date:

Astronomy

Jan. 17, 2014 Rise Set
Actual Time 7:46 AM EST 5:55 PM EST
Civil Twilight 7:18 AM EST 6:22 PM EST
Nautical Twilight 6:48 AM EST 6:53 PM EST
Astronomical Twilight 6:18 AM EST 7:23 PM EST
Moon 7:35 PM EST (1/17) 8:19 AM EST (1/17)
Length of Visible Light 11h 03m
Length of Day
10h 09m
Full, 98% of the Moon is Illuminated
Jan 17
Full
Jan 24
Last Quarter
Jan 30
New
Feb 6
First Quarter
Feb 14
Full

Hourly Weather History & Observations

Time (EST) Temp. Windchill Dew Point Humidity Pressure Visibility Wind Dir Wind Speed Gust Speed Precip Events Conditions
12:53 AM 28.0 °F - 21.0 °F 75% 29.96 in 10.0 mi Calm Calm - N/A   Clear
1:53 AM 26.1 °F - 21.0 °F 81% 29.95 in 10.0 mi Calm Calm - N/A   Clear
2:53 AM 26.1 °F - 21.0 °F 81% 29.95 in 10.0 mi Calm Calm - N/A   Clear
3:53 AM 26.1 °F - 21.0 °F 81% 29.95 in 10.0 mi Calm Calm - N/A   Clear
4:53 AM 24.1 °F - 21.0 °F 88% 29.96 in 10.0 mi Calm Calm - N/A   Partly Cloudy
5:53 AM 25.0 °F - 21.9 °F 88% 29.96 in 10.0 mi Calm Calm - N/A   Clear
6:53 AM 23.0 °F - 19.9 °F 88% 29.98 in 10.0 mi Calm Calm - N/A   Clear
7:53 AM 23.0 °F - 19.9 °F 88% 29.97 in 10.0 mi Calm Calm - N/A   Clear
8:53 AM 28.0 °F - 25.0 °F 88% 29.99 in 10.0 mi Calm Calm - N/A   Clear
9:53 AM 37.0 °F 32.4 °F 30.0 °F 76% 30.00 in 10.0 mi South 5.8 mph - N/A   Clear
10:53 AM 43.0 °F 37.7 °F 30.9 °F 62% 30.01 in 10.0 mi SW 9.2 mph - N/A   Clear
11:53 AM 46.0 °F 41.0 °F 26.1 °F 46% 29.98 in 10.0 mi West 10.4 mph - N/A   Clear
12:53 PM 48.0 °F - 24.1 °F 39% 29.94 in 10.0 mi SW 11.5 mph 20.7 mph N/A   Partly Cloudy
1:53 PM 45.0 °F 40.6 °F 23.0 °F 42% 29.93 in 10.0 mi WSW 8.1 mph 17.3 mph N/A   Scattered Clouds
2:53 PM 46.9 °F - 19.9 °F 34% 29.93 in 10.0 mi West 16.1 mph 23.0 mph N/A   Partly Cloudy
3:53 PM 44.1 °F 37.1 °F 18.0 °F 35% 29.96 in 10.0 mi West 15.0 mph 27.6 mph N/A   Scattered Clouds
4:53 PM 43.0 °F 37.7 °F 19.9 °F 40% 29.99 in 10.0 mi NW 9.2 mph - N/A   Partly Cloudy
5:53 PM 39.0 °F 32.8 °F 19.9 °F 46% 30.02 in 10.0 mi WNW 9.2 mph - N/A   Partly Cloudy
6:53 PM 37.0 °F 30.4 °F 19.0 °F 48% 30.05 in 10.0 mi WNW 9.2 mph 18.4 mph N/A   Clear
7:53 PM 35.1 °F 27.4 °F 18.0 °F 50% 30.08 in 10.0 mi NW 10.4 mph 19.6 mph N/A   Clear
8:53 PM 34.0 °F 26.6 °F 17.1 °F 50% 30.11 in 10.0 mi NW 9.2 mph - N/A   Overcast
9:53 PM 33.1 °F 26.1 °F 15.1 °F 48% 30.12 in 10.0 mi NW 8.1 mph - N/A   Overcast
10:53 PM 32.0 °F 27.5 °F 14.0 °F 48% 30.13 in 10.0 mi WNW 4.6 mph - N/A   Overcast
11:53 PM 30.9 °F 25.2 °F 14.0 °F 50% 30.11 in 10.0 mi WNW 5.8 mph - N/A   Overcast